Time,TemperatureF,DewpointF,PressureIn,WindDirection,WindDirectionDegrees,WindSpeedMPH,WindSpeedGustMPH,Humidity,HourlyPrecipIn,Conditions,Clouds,dailyrainin,SoftwareType,DateUTC
2014-03-03 00:00:00,24.5,13.3,30.00,NNW,340,1.0,5.0,62,0.00,OVC,,0.00,WeatherDisplay:10.37,2014-03-03 05:00:00,
2014-03-03 00:05:00,24.4,12.9,30.00,NNW,338,2.0,5.0,61,0.00,OVC,,0.00,WeatherDisplay:10.37,2014-03-03 05:05:00,
2014-03-03 00:10:00,24.3,12.8,30.00,NNW,344,2.0,5.0,61,0.00,OVC,,0.00,WeatherDisplay:10.37,2014-03-03 05:10:00,
2014-03-03 00:15:00,24.1,13.0,30.00,NNW,342,0.0,7.0,62,0.00,OVC,,0.00,WeatherDisplay:10.37,2014-03-03 05:15:00,
2014-03-03 00:20:00,24.0,12.9,30.01,North,350,1.0,3.0,62,0.00,OVC,,0.00,WeatherDisplay:10.37,2014-03-03 05:20:00,
2014-03-03 00:25:00,23.9,12.8,30.01,North,2,0.0,5.0,62,0.00,OVC,,0.00,WeatherDisplay:10.37,2014-03-03 05:25:00,
2014-03-03 00:30:00,23.8,12.7,30.01,North,1,3.0,9.0,62,0.00,OVC,,0.00,WeatherDisplay:10.37,2014-03-03 05:30:00,
2014-03-03 00:35:00,23.7,12.2,30.01,North,352,2.0,5.0,61,0.00,OVC,,0.00,WeatherDisplay:10.37,2014-03-03 05:35:00,
2014-03-03 00:40:00,23.6,12.1,30.02,NNW,338,1.0,3.0,61,0.00,OVC,,0.00,WeatherDisplay:10.37,2014-03-03 05:40:00,
2014-03-03 00:45:00,23.5,12.0,30.01,NNW,327,0.0,3.0,61,0.00,OVC,,0.00,WeatherDisplay:10.37,2014-03-03 05:45:00,
2014-03-03 00:50:00,23.4,11.9,30.01,NW,317,1.0,6.0,61,0.00,OVC,,0.00,WeatherDisplay:10.37,2014-03-03 05:50:00,
2014-03-03 00:55:00,23.2,11.8,30.02,NW,323,2.0,8.0,61,0.00,OVC,,0.00,WeatherDisplay:10.37,2014-03-03 05:55:00,
2014-03-03 01:00:00,23.1,11.6,30.02,NNW,336,2.0,5.0,61,0.00,OVC,,0.00,WeatherDisplay:10.37,2014-03-03 06:00:00,
2014-03-03 01:05:00,22.9,11.4,30.01,North,360,3.0,5.0,61,0.00,BKN,,0.00,WeatherDisplay:10.37,2014-03-03 06:05:00,
2014-03-03 01:10:00,22.7,11.3,30.01,NNE,18,2.0,5.0,61,0.00,BKN,,0.00,WeatherDisplay:10.37,2014-03-03 06:10:00,
2014-03-03 01:15:00,22.6,11.2,30.01,North,355,2.0,5.0,61,0.00,BKN,,0.00,WeatherDisplay:10.37,2014-03-03 06:15:00,
2014-03-03 01:20:00,22.5,11.8,30.01,NW,325,1.0,10.0,63,0.00,BKN,,0.00,WeatherDisplay:10.37,2014-03-03 06:20:00,
2014-03-03 01:25:00,22.3,10.9,30.01,NNW,329,1.0,12.0,61,0.00,BKN,,0.00,WeatherDisplay:10.37,2014-03-03 06:25:00,
2014-03-03 01:30:00,22.2,10.8,30.01,North,1,5.0,8.0,61,0.00,BKN,,0.00,WeatherDisplay:10.37,2014-03-03 06:30:00,
2014-03-03 01:35:00,22.0,10.6,30.01,North,3,1.0,7.0,61,0.00,BKN,,0.00,WeatherDisplay:10.37,2014-03-03 06:35:00,
2014-03-03 01:40:00,21.9,10.1,30.01,NNW,341,1.0,3.0,60,0.00,BKN,,0.00,WeatherDisplay:10.37,2014-03-03 06:40:00,
2014-03-03 01:45:00,21.8,10.0,30.02,NNW,338,3.0,7.0,60,0.00,BKN,,0.00,WeatherDisplay:10.37,2014-03-03 06:45:00,
2014-03-03 01:50:00,21.6,9.9,30.02,North,352,3.0,7.0,60,0.00,BKN,,0.00,WeatherDisplay:10.37,2014-03-03 06:50:00,
2014-03-03 01:55:00,21.4,9.7,30.01,North,354,3.0,9.0,60,0.00,BKN,,0.00,WeatherDisplay:10.37,2014-03-03 06:55:00,
2014-03-03 02:00:00,21.2,9.8,30.01,NNW,341,1.0,7.0,61,0.00,BKN,,0.00,WeatherDisplay:10.37,2014-03-03 07:00:00,
2014-03-03 02:05:00,21.1,9.7,30.01,North,359,1.0,6.0,61,0.00,BKN,,0.00,WeatherDisplay:10.37,2014-03-03 07:05:00,
2014-03-03 02:10:00,20.9,9.5,30.01,North,358,2.0,6.0,61,0.00,BKN,,0.00,WeatherDisplay:10.37,2014-03-03 07:10:00,
2014-03-03 02:15:00,20.8,9.5,30.01,North,349,3.0,7.0,61,0.00,BKN,,0.00,WeatherDisplay:10.37,2014-03-03 07:15:00,
2014-03-03 02:20:00,20.7,9.7,30.01,North,353,0.0,5.0,62,0.00,BKN,,0.00,WeatherDisplay:10.37,2014-03-03 07:20:00,
2014-03-03 02:25:00,20.6,9.3,30.01,North,355,2.0,12.0,61,0.00,BKN,,0.00,WeatherDisplay:10.37,2014-03-03 07:25:00,
2014-03-03 02:30:00,20.5,9.6,30.01,North,353,2.0,4.0,62,0.00,BKN,,0.00,WeatherDisplay:10.37,2014-03-03 07:30:00,
2014-03-03 02:35:00,20.4,9.1,30.01,NNW,343,2.0,6.0,61,0.00,BKN,,0.00,WeatherDisplay:10.37,2014-03-03 07:35:00,
2014-03-03 02:40:00,20.3,9.4,30.00,NNW,331,2.0,8.0,62,0.00,BKN,,0.00,WeatherDisplay:10.37,2014-03-03 07:40:00,
2014-03-03 02:45:00,20.2,9.2,30.00,NNW,329,3.0,4.0,62,0.00,BKN,,0.00,WeatherDisplay:10.37,2014-03-03 07:45:00,
2014-03-03 02:50:00,20.1,8.8,30.00,NNW,332,2.0,7.0,61,0.00,BKN,,0.00,WeatherDisplay:10.37,2014-03-03 07:50:00,
2014-03-03 02:55:00,20.0,8.7,30.01,NW,321,2.0,6.0,61,0.00,BKN,,0.00,WeatherDisplay:10.37,2014-03-03 07:55:00,
2014-03-03 03:00:00,19.9,9.0,30.01,NNW,344,3.0,7.0,62,0.00,BKN,,0.00,WeatherDisplay:10.37,2014-03-03 08:00:00,
2014-03-03 03:05:00,19.8,8.9,30.01,North,4,3.0,9.0,62,0.00,BKN,,0.00,WeatherDisplay:10.37,2014-03-03 08:05:00,
2014-03-03 03:10:00,19.7,8.8,30.02,NNW,348,2.0,6.0,62,0.00,BKN,,0.00,WeatherDisplay:10.37,2014-03-03 08:10:00,
2014-03-03 03:15:00,19.6,8.3,30.02,NNW,343,2.0,7.0,61,0.00,BKN,,0.00,WeatherDisplay:10.37,2014-03-03 08:15:00,
2014-03-03 03:20:00,19.5,8.9,30.02,North,355,1.0,6.0,63,0.00,BKN,,0.00,WeatherDisplay:10.37,2014-03-03 08:20:00,
2014-03-03 03:25:00,19.4,8.5,30.02,NNW,339,1.0,6.0,62,0.00,BKN,,0.00,WeatherDisplay:10.37,2014-03-03 08:25:00,
2014-03-03 03:30:00,19.2,8.0,30.02,NNW,344,2.0,9.0,61,0.00,BKN,,0.00,WeatherDisplay:10.37,2014-03-03 08:30:00,
2014-03-03 03:35:00,19.1,8.2,30.02,NNW,341,1.0,7.0,62,0.00,BKN,,0.00,WeatherDisplay:10.37,2014-03-03 08:35:00,
2014-03-03 03:40:00,19.0,8.4,30.02,North,351,3.0,7.0,63,0.00,BKN,,0.00,WeatherDisplay:10.37,2014-03-03 08:40:00,
2014-03-03 03:45:00,18.8,7.9,30.03,NNW,345,2.0,8.0,62,0.00,BKN,,0.00,WeatherDisplay:10.37,2014-03-03 08:45:00,
2014-03-03 03:50:00,18.7,7.8,30.03,NNW,334,3.0,6.0,62,0.00,BKN,,0.00,WeatherDisplay:10.37,2014-03-03 08:50:00,
2014-03-03 03:55:00,18.5,7.6,30.03,NNW,345,2.0,5.0,62,0.00,BKN,,0.00,WeatherDisplay:10.37,2014-03-03 08:55:00,
2014-03-03 04:00:00,18.4,7.9,30.04,NNW,328,1.0,7.0,63,0.00,BKN,,0.00,WeatherDisplay:10.37,2014-03-03 09:00:00,
2014-03-03 04:05:00,18.2,7.7,30.04,NW,308,1.0,4.0,63,0.00,BKN,,0.00,WeatherDisplay:10.37,2014-03-03 09:05:00,
2014-03-03 04:10:00,18.1,7.3,30.05,NNW,340,2.0,6.0,62,0.00,BKN,,0.00,WeatherDisplay:10.37,2014-03-03 09:10:00,
2014-03-03 04:15:00,18.0,7.1,30.05,North,4,7.0,15.0,62,0.00,BKN,,0.00,WeatherDisplay:10.37,2014-03-03 09:15:00,
2014-03-03 04:20:00,17.7,6.9,30.05,NNW,336,3.0,10.0,62,0.00,BKN,,0.00,WeatherDisplay:10.37,2014-03-03 09:20:00,
2014-03-03 04:25:00,17.6,6.1,30.05,NW,317,2.0,7.0,60,0.00,BKN,,0.00,WeatherDisplay:10.37,2014-03-03 09:25:00,
2014-03-03 04:30:00,17.5,5.9,30.06,NW,310,1.0,5.0,60,0.00,BKN,,0.00,WeatherDisplay:10.37,2014-03-03 09:30:00,
2014-03-03 04:35:00,17.3,5.8,30.06,NW,306,2.0,5.0,60,0.00,BKN,,0.00,WeatherDisplay:10.37,2014-03-03 09:35:00,
2014-03-03 04:40:00,17.2,4.9,30.06,NW,315,3.0,6.0,58,0.00,BKN,,0.00,WeatherDisplay:10.37,2014-03-03 09:40:00,
2014-03-03 04:45:00,17.1,5.6,30.06,NW,321,2.0,6.0,60,0.00,BKN,,0.00,WeatherDisplay:10.37,2014-03-03 09:45:00,
2014-03-03 04:50:00,17.0,4.7,30.06,NW,312,3.0,7.0,58,0.00,BKN,,0.00,WeatherDisplay:10.37,2014-03-03 09:50:00,
2014-03-03 04:55:00,16.8,4.2,30.06,NW,315,2.0,7.0,57,0.00,BKN,,0.00,WeatherDisplay:10.37,2014-03-03 09:55:00,
2014-03-03 05:00:00,16.7,4.1,30.06,NNW,331,3.0,12.0,57,0.00,BKN,,0.00,WeatherDisplay:10.37,2014-03-03 10:00:00,
2014-03-03 05:05:00,16.5,3.9,30.07,NW,326,5.0,9.0,57,0.00,BKN,,0.00,WeatherDisplay:10.37,2014-03-03 10:05:00,
2014-03-03 05:10:00,16.4,4.2,30.07,NW,322,3.0,6.0,58,0.00,BKN,,0.00,WeatherDisplay:10.37,2014-03-03 10:10:00,
2014-03-03 05:15:00,16.3,4.1,30.07,NNW,348,3.0,7.0,58,0.00,BKN,,0.00,WeatherDisplay:10.37,2014-03-03 10:15:00,
2014-03-03 05:20:00,16.2,4.0,30.07,NNW,341,3.0,7.0,58,0.00,BKN,,0.00,WeatherDisplay:10.37,2014-03-03 10:20:00,
2014-03-03 05:25:00,16.1,3.9,30.07,North,351,2.0,9.0,58,0.00,BKN,,0.00,WeatherDisplay:10.37,2014-03-03 10:25:00,
2014-03-03 05:30:00,16.1,3.9,30.08,North,4,2.0,10.0,58,0.00,BKN,,0.00,WeatherDisplay:10.37,2014-03-03 10:30:00,
2014-03-03 05:35:00,16.0,3.4,30.08,North,357,1.0,4.0,57,0.00,BKN,,0.00,WeatherDisplay:10.37,2014-03-03 10:35:00,
2014-03-03 05:40:00,15.9,4.5,30.08,NNW,330,2.0,5.0,60,0.00,BKN,,0.00,WeatherDisplay:10.37,2014-03-03 10:40:00,
2014-03-03 05:45:00,15.9,3.7,30.08,NNW,342,1.0,10.0,58,0.00,BKN,,0.00,WeatherDisplay:10.37,2014-03-03 10:45:00,
2014-03-03 05:50:00,15.8,3.6,30.08,North,349,1.0,4.0,58,0.00,BKN,,0.00,WeatherDisplay:10.37,2014-03-03 10:50:00,
2014-03-03 05:55:00,15.8,4.0,30.08,NNW,347,3.0,6.0,59,0.00,BKN,,0.00,WeatherDisplay:10.37,2014-03-03 10:55:00,
2014-03-03 06:00:00,15.7,3.5,30.08,NW,326,1.0,5.0,58,0.00,BKN,,0.00,WeatherDisplay:10.37,2014-03-03 11:00:00,
2014-03-03 06:05:00,15.7,3.5,30.09,NNW,331,2.0,8.0,58,0.00,BKN,,0.00,WeatherDisplay:10.37,2014-03-03 11:05:00,
2014-03-03 06:10:00,15.6,3.1,30.09,NNW,346,1.0,7.0,57,0.00,BKN,,0.00,WeatherDisplay:10.37,2014-03-03 11:10:00,
2014-03-03 06:15:00,15.6,4.1,30.09,NNW,346,1.0,4.0,60,0.00,BKN,,0.00,WeatherDisplay:10.37,2014-03-03 11:15:00,
2014-03-03 06:20:00,15.5,3.3,30.09,NNW,345,3.0,7.0,58,0.00,BKN,,0.00,WeatherDisplay:10.37,2014-03-03 11:20:00,
2014-03-03 06:25:00,15.5,3.3,30.09,NNW,346,1.0,5.0,58,0.00,BKN,,0.00,WeatherDisplay:10.37,2014-03-03 11:25:00,
2014-03-03 06:30:00,15.4,4.0,30.10,NNW,335,0.0,3.0,60,0.00,BKN,,0.00,WeatherDisplay:10.37,2014-03-03 11:30:00,
2014-03-03 06:35:00,15.4,4.0,30.09,WNW,302,2.0,7.0,60,0.00,BKN,,0.00,WeatherDisplay:10.37,2014-03-03 11:35:00,
2014-03-03 06:40:00,15.4,4.0,30.10,WNW,297,1.0,3.0,60,0.00,BKN,,0.00,WeatherDisplay:10.37,2014-03-03 11:40:00,
2014-03-03 06:45:00,15.4,3.6,30.11,WNW,303,0.0,4.0,59,0.00,BKN,,0.00,WeatherDisplay:10.37,2014-03-03 11:45:00,
2014-03-03 06:50:00,15.4,4.0,30.11,WNW,302,0.0,3.0,60,0.00,BKN,,0.00,WeatherDisplay:10.37,2014-03-03 11:50:00,
2014-03-03 06:55:00,15.4,3.6,30.11,WNW,295,2.0,5.0,59,0.00,BKN,,0.00,WeatherDisplay:10.37,2014-03-03 11:55:00,
2014-03-03 07:00:00,15.4,4.0,30.11,WNW,286,1.0,5.0,60,0.00,BKN,,0.00,WeatherDisplay:10.37,2014-03-03 12:00:00,
2014-03-03 07:05:00,15.4,4.0,30.11,West,280,0.0,2.0,60,0.00,BKN,,0.00,WeatherDisplay:10.37,2014-03-03 12:05:00,
2014-03-03 07:10:00,15.5,3.7,30.11,WNW,292,1.0,4.0,59,0.00,BKN,,0.00,WeatherDisplay:10.37,2014-03-03 12:10:00,
2014-03-03 07:15:00,15.5,4.1,30.11,WNW,302,1.0,3.0,60,0.00,BKN,,0.00,WeatherDisplay:10.37,2014-03-03 12:15:00,
2014-03-03 07:20:00,15.6,4.1,30.12,WNW,299,1.0,3.0,60,0.00,BKN,,0.00,WeatherDisplay:10.37,2014-03-03 12:20:00,
2014-03-03 07:25:00,15.6,3.4,30.12,WNW,287,1.0,4.0,58,0.00,BKN,,0.00,WeatherDisplay:10.37,2014-03-03 12:25:00,
2014-03-03 07:30:00,15.7,4.3,30.12,WNW,290,0.0,4.0,60,0.00,BKN,,0.00,WeatherDisplay:10.37,2014-03-03 12:30:00,
2014-03-03 07:35:00,15.8,4.0,30.11,NW,316,0.0,5.0,59,0.00,BKN,,0.00,WeatherDisplay:10.37,2014-03-03 12:35:00,
2014-03-03 07:40:00,15.8,4.4,30.12,NNW,327,1.0,4.0,60,0.00,BKN,,0.00,WeatherDisplay:10.37,2014-03-03 12:40:00,
2014-03-03 07:45:00,15.9,4.4,30.12,NNW,336,1.0,4.0,60,0.00,BKN,,0.00,WeatherDisplay:10.37,2014-03-03 12:45:00,
2014-03-03 07:50:00,16.0,4.2,30.12,WNW,301,1.0,3.0,59,0.00,BKN,,0.00,WeatherDisplay:10.37,2014-03-03 12:50:00,
2014-03-03 07:55:00,16.1,4.3,30.11,WNW,293,1.0,3.0,59,0.00,BKN,,0.00,WeatherDisplay:10.37,2014-03-03 12:55:00,
2014-03-03 08:00:00,16.2,4.7,30.11,NW,307,3.0,8.0,60,0.00,BKN,,0.00,WeatherDisplay:10.37,2014-03-03 13:00:00,
2014-03-03 08:05:00,16.2,4.7,30.11,NW,319,1.0,3.0,60,0.00,BKN,,0.00,WeatherDisplay:10.37,2014-03-03 13:05:00,
2014-03-03 08:10:00,16.3,5.2,30.11,NW,314,0.0,3.0,61,0.00,BKN,,0.00,WeatherDisplay:10.37,2014-03-03 13:10:00,
2014-03-03 08:15:00,16.4,4.6,30.11,North,356,5.0,7.0,59,0.00,BKN,,0.00,WeatherDisplay:10.37,2014-03-03 13:15:00,
2014-03-03 08:20:00,16.4,4.9,30.12,North,9,2.0,5.0,60,0.00,BKN,,0.00,WeatherDisplay:10.37,2014-03-03 13:20:00,
2014-03-03 08:25:00,16.6,5.1,30.12,North,7,0.0,4.0,60,0.00,BKN,,0.00,WeatherDisplay:10.37,2014-03-03 13:25:00,
2014-03-03 08:30:00,16.7,5.6,30.12,NNW,336,1.0,6.0,61,0.00,BKN,,0.00,WeatherDisplay:10.37,2014-03-03 13:30:00,
2014-03-03 08:35:00,17.0,5.1,30.11,WNW,285,2.0,5.0,59,0.00,BKN,,0.00,WeatherDisplay:10.37,2014-03-03 13:35:00,
2014-03-03 08:40:00,17.0,4.4,30.12,WNW,287,2.0,6.0,57,0.00,BKN,,0.00,WeatherDisplay:10.37,2014-03-03 13:40:00,
2014-03-03 08:45:00,17.0,4.8,30.12,WNW,285,3.0,8.0,58,0.00,BKN,,0.00,WeatherDisplay:10.37,2014-03-03 13:45:00,
2014-03-03 08:50:00,17.1,4.8,30.12,NW,322,2.0,8.0,58,0.00,BKN,,0.00,WeatherDisplay:10.37,2014-03-03 13:50:00,
2014-03-03 08:55:00,17.1,4.5,30.12,NNW,336,3.0,7.0,57,0.00,BKN,,0.00,WeatherDisplay:10.37,2014-03-03 13:55:00,
2014-03-03 09:00:00,17.1,4.5,30.12,NW,306,3.0,7.0,57,0.00,BKN,,0.00,WeatherDisplay:10.37,2014-03-03 14:00:00,
2014-03-03 09:05:00,17.1,4.5,30.12,WNW,292,2.0,7.0,57,0.00,OVC,,0.00,WeatherDisplay:10.37,2014-03-03 14:05:00,
2014-03-03 09:10:00,17.2,4.6,30.12,NW,313,2.0,7.0,57,0.00,OVC,,0.00,WeatherDisplay:10.37,2014-03-03 14:10:00,
2014-03-03 09:15:00,17.2,4.6,30.12,NNW,346,3.0,8.0,57,0.00,OVC,,0.00,WeatherDisplay:10.37,2014-03-03 14:15:00,
2014-03-03 09:20:00,17.2,4.6,30.12,NNW,339,1.0,4.0,57,0.00,OVC,,0.00,WeatherDisplay:10.37,2014-03-03 14:20:00,
2014-03-03 09:25:00,17.5,4.8,30.12,NW,324,1.0,6.0,57,0.00,OVC,,0.00,WeatherDisplay:10.37,2014-03-03 14:25:00,
2014-03-03 09:30:00,17.7,4.6,30.12,WNW,286,2.0,8.0,56,0.00,OVC,,0.00,WeatherDisplay:10.37,2014-03-03 14:30:00,
2014-03-03 09:35:00,17.7,4.6,30.12,West,279,2.0,10.0,56,0.00,OVC,,0.00,WeatherDisplay:10.37,2014-03-03 14:35:00,
2014-03-03 09:40:00,17.8,4.7,30.12,WNW,290,1.0,7.0,56,0.00,OVC,,0.00,WeatherDisplay:10.37,2014-03-03 14:40:00,
2014-03-03 09:45:00,18.0,4.9,30.12,WNW,302,1.0,4.0,56,0.00,OVC,,0.00,WeatherDisplay:10.37,2014-03-03 14:45:00,
2014-03-03 09:50:00,18.2,4.7,30.12,WNW,300,2.0,5.0,55,0.00,OVC,,0.00,WeatherDisplay:10.37,2014-03-03 14:50:00,
2014-03-03 09:55:00,18.4,4.9,30.13,WNW,299,2.0,6.0,55,0.00,OVC,,0.00,WeatherDisplay:10.37,2014-03-03 14:55:00,
2014-03-03 10:00:00,18.4,4.5,30.13,NNW,331,2.0,8.0,54,0.00,OVC,,0.00,WeatherDisplay:10.37,2014-03-03 15:00:00,
2014-03-03 10:05:00,18.5,4.2,30.13,NNW,334,1.0,6.0,53,0.00,OVC,,0.00,WeatherDisplay:10.37,2014-03-03 15:05:00,
2014-03-03 10:10:00,18.6,5.1,30.13,NNW,345,3.0,7.0,55,0.00,OVC,,0.00,WeatherDisplay:10.37,2014-03-03 15:10:00,
2014-03-03 10:15:00,18.6,5.1,30.13,North,5,5.0,10.0,55,0.00,OVC,,0.00,WeatherDisplay:10.37,2014-03-03 15:15:00,
2014-03-03 10:20:00,18.5,4.6,30.13,NNW,339,1.0,5.0,54,0.00,OVC,,0.00,WeatherDisplay:10.37,2014-03-03 15:20:00,
2014-03-03 10:25:00,18.7,5.2,30.13,NW,323,1.0,5.0,55,0.00,OVC,,0.00,WeatherDisplay:10.37,2014-03-03 15:25:00,
2014-03-03 10:30:00,18.8,5.3,30.12,NNW,335,2.0,7.0,55,0.00,OVC,,0.00,WeatherDisplay:10.37,2014-03-03 15:30:00,
2014-03-03 10:35:00,18.8,5.3,30.13,NNW,342,3.0,7.0,55,0.00,OVC,,0.00,WeatherDisplay:10.37,2014-03-03 15:35:00,
2014-03-03 10:40:00,18.8,4.9,30.13,NNW,342,2.0,8.0,54,0.00,OVC,,0.00,WeatherDisplay:10.37,2014-03-03 15:40:00,
2014-03-03 10:45:00,18.8,4.9,30.13,North,349,2.0,6.0,54,0.00,OVC,,0.00,WeatherDisplay:10.37,2014-03-03 15:45:00,
2014-03-03 10:50:00,18.9,4.9,30.13,NW,325,2.0,5.0,54,0.00,OVC,,0.00,WeatherDisplay:10.37,2014-03-03 15:50:00,
2014-03-03 10:55:00,19.0,5.1,30.13,NNW,328,2.0,10.0,54,0.00,OVC,,0.00,WeatherDisplay:10.37,2014-03-03 15:55:00,
2014-03-03 11:00:00,19.1,4.8,30.13,NNW,340,2.0,8.0,53,0.00,OVC,,0.00,WeatherDisplay:10.37,2014-03-03 16:00:00,
2014-03-03 11:05:00,19.2,5.3,30.13,NNW,330,2.0,9.0,54,0.00,OVC,,0.00,WeatherDisplay:10.37,2014-03-03 16:05:00,
2014-03-03 11:10:00,19.4,4.6,30.13,NW,304,3.0,6.0,52,0.00,OVC,,0.00,WeatherDisplay:10.37,2014-03-03 16:10:00,
2014-03-03 11:15:00,19.5,4.3,30.13,West,267,1.0,8.0,51,0.00,OVC,,0.00,WeatherDisplay:10.37,2014-03-03 16:15:00,
2014-03-03 11:20:00,19.5,4.8,30.13,WNW,300,1.0,5.0,52,0.00,OVC,,0.00,WeatherDisplay:10.37,2014-03-03 16:20:00,
2014-03-03 11:25:00,19.8,4.6,30.13,NNW,342,5.0,9.0,51,0.00,OVC,,0.00,WeatherDisplay:10.37,2014-03-03 16:25:00,
2014-03-03 11:30:00,19.9,4.7,30.14,NNW,347,2.0,6.0,51,0.00,OVC,,0.00,WeatherDisplay:10.37,2014-03-03 16:30:00,
2014-03-03 11:35:00,19.9,4.3,30.14,NW,311,2.0,7.0,50,0.00,OVC,,0.00,WeatherDisplay:10.37,2014-03-03 16:35:00,
2014-03-03 11:40:00,20.0,4.7,30.14,WNW,294,1.0,5.0,51,0.00,OVC,,0.00,WeatherDisplay:10.37,2014-03-03 16:40:00,
2014-03-03 11:45:00,20.0,4.3,30.14,WNW,295,3.0,8.0,50,0.00,OVC,,0.00,WeatherDisplay:10.37,2014-03-03 16:45:00,
2014-03-03 11:50:00,20.0,4.7,30.13,WNW,293,1.0,7.0,51,0.00,OVC,,0.00,WeatherDisplay:10.37,2014-03-03 16:50:00,
2014-03-03 11:55:00,19.9,4.7,30.12,WNW,300,3.0,6.0,51,0.00,OVC,,0.00,WeatherDisplay:10.37,2014-03-03 16:55:00,
2014-03-03 12:00:00,19.9,4.2,30.13,WNW,288,2.0,8.0,50,0.00,OVC,,0.00,WeatherDisplay:10.37,2014-03-03 17:00:00,
2014-03-03 12:05:00,19.9,4.2,30.13,WNW,285,2.0,5.0,50,0.00,OVC,,0.00,WeatherDisplay:10.37,2014-03-03 17:05:00,
2014-03-03 12:10:00,19.9,3.8,30.12,NW,325,2.0,7.0,49,0.00,OVC,,0.00,WeatherDisplay:10.37,2014-03-03 17:10:00,
2014-03-03 12:15:00,20.1,4.9,30.12,NNW,341,1.0,6.0,51,0.00,OVC,,0.00,WeatherDisplay:10.37,2014-03-03 17:15:00,
2014-03-03 12:20:00,20.4,4.7,30.13,NNW,334,2.0,7.0,50,0.00,OVC,,0.00,WeatherDisplay:10.37,2014-03-03 17:20:00,
2014-03-03 12:30:00,20.6,4.4,30.13,NW,315,0.0,4.0,49,0.00,OVC,,0.00,WeatherDisplay:10.37,2014-03-03 17:30:00,
2014-03-03 12:35:00,20.8,3.7,30.12,NW,307,1.0,7.0,47,0.00,OVC,,0.00,WeatherDisplay:10.37,2014-03-03 17:35:00,
2014-03-03 12:40:00,20.9,3.8,30.12,NW,315,2.0,7.0,47,0.00,OVC,,0.00,WeatherDisplay:10.37,2014-03-03 17:40:00,
2014-03-03 12:45:00,20.7,3.2,30.12,NW,304,2.0,8.0,46,0.00,OVC,,0.00,WeatherDisplay:10.37,2014-03-03 17:45:00,
2014-03-03 12:50:00,20.7,2.7,30.12,WNW,290,0.0,7.0,45,0.00,OVC,,0.00,WeatherDisplay:10.37,2014-03-03 17:50:00,
2014-03-03 12:55:00,20.9,3.8,30.12,WNW,293,2.0,5.0,47,0.00,OVC,,0.00,WeatherDisplay:10.37,2014-03-03 17:55:00,
2014-03-03 13:00:00,20.9,3.4,30.11,NW,312,2.0,6.0,46,0.00,OVC,,0.00,WeatherDisplay:10.37,2014-03-03 18:00:00,
2014-03-03 13:05:00,21.1,4.0,30.11,NW,309,2.0,6.0,47,0.00,BKN,,0.00,WeatherDisplay:10.37,2014-03-03 18:05:00,
2014-03-03 13:10:00,21.1,4.0,30.11,NNW,345,5.0,12.0,47,0.00,BKN,,0.00,WeatherDisplay:10.37,2014-03-03 18:10:00,
2014-03-03 13:15:00,21.0,4.4,30.11,North,359,1.0,10.0,48,0.00,BKN,,0.00,WeatherDisplay:10.37,2014-03-03 18:15:00,
2014-03-03 13:20:00,21.1,3.9,30.11,NNW,335,3.0,9.0,47,0.00,BKN,,0.00,WeatherDisplay:10.37,2014-03-03 18:20:00,
2014-03-03 13:25:00,21.2,4.1,30.11,NNW,328,5.0,12.0,47,0.00,BKN,,0.00,WeatherDisplay:10.37,2014-03-03 18:25:00,
2014-03-03 13:30:00,21.4,4.2,30.11,NNW,332,1.0,5.0,47,0.00,BKN,,0.00,WeatherDisplay:10.37,2014-03-03 18:30:00,
2014-03-03 13:35:00,21.4,3.8,30.11,WNW,290,2.0,9.0,46,0.00,BKN,,0.00,WeatherDisplay:10.37,2014-03-03 18:35:00,
2014-03-03 13:40:00,21.5,3.9,30.11,WNW,291,1.0,6.0,46,0.00,BKN,,0.00,WeatherDisplay:10.37,2014-03-03 18:40:00,
2014-03-03 13:45:00,21.6,3.5,30.11,NW,313,6.0,12.0,45,0.00,BKN,,0.00,WeatherDisplay:10.37,2014-03-03 18:45:00,
2014-03-03 13:50:00,21.5,4.4,30.12,NNW,335,3.0,8.0,47,0.00,BKN,,0.00,WeatherDisplay:10.37,2014-03-03 18:50:00,
2014-03-03 13:55:00,21.5,3.9,30.11,NNW,329,1.0,5.0,46,0.00,BKN,,0.00,WeatherDisplay:10.37,2014-03-03 18:55:00,
2014-03-03 14:00:00,21.7,4.5,30.11,NW,311,5.0,8.0,47,0.00,BKN,,0.00,WeatherDisplay:10.37,2014-03-03 19:00:00,
2014-03-03 14:05:00,21.5,3.0,30.11,NW,312,5.0,10.0,44,0.00,BKN,,0.00,WeatherDisplay:10.37,2014-03-03 19:05:00,
2014-03-03 14:10:00,21.5,3.9,30.11,NW,319,3.0,6.0,46,0.00,BKN,,0.00,WeatherDisplay:10.37,2014-03-03 19:10:00,
2014-03-03 14:15:00,21.5,3.9,30.11,NW,309,1.0,6.0,46,0.00,BKN,,0.00,WeatherDisplay:10.37,2014-03-03 19:15:00,
2014-03-03 14:20:00,21.6,3.5,30.11,NW,320,3.0,7.0,45,0.00,BKN,,0.00,WeatherDisplay:10.37,2014-03-03 19:20:00,
2014-03-03 14:25:00,21.6,3.0,30.11,NW,305,3.0,9.0,44,0.00,BKN,,0.00,WeatherDisplay:10.37,2014-03-03 19:25:00,
2014-03-03 14:30:00,21.6,3.0,30.11,West,281,1.0,6.0,44,0.00,BKN,,0.00,WeatherDisplay:10.37,2014-03-03 19:30:00,
2014-03-03 14:35:00,21.7,4.1,30.11,WNW,292,2.0,7.0,46,0.00,BKN,,0.00,WeatherDisplay:10.37,2014-03-03 19:35:00,
2014-03-03 14:40:00,22.0,3.4,30.11,WNW,298,1.0,5.0,44,0.00,BKN,,0.00,WeatherDisplay:10.37,2014-03-03 19:40:00,
2014-03-03 14:45:00,22.1,4.0,30.11,WNW,285,2.0,8.0,45,0.00,BKN,,0.00,WeatherDisplay:10.37,2014-03-03 19:45:00,
2014-03-03 14:50:00,22.2,3.1,30.12,WNW,288,3.0,8.0,43,0.00,BKN,,0.00,WeatherDisplay:10.37,2014-03-03 19:50:00,
2014-03-03 14:55:00,22.1,2.5,30.13,NNW,336,3.0,7.0,42,0.00,BKN,,0.00,WeatherDisplay:10.37,2014-03-03 19:55:00,
2014-03-03 15:00:00,22.0,2.4,30.13,NNW,338,2.0,8.0,42,0.00,BKN,,0.00,WeatherDisplay:10.37,2014-03-03 20:00:00,
2014-03-03 15:05:00,21.8,1.7,30.13,NW,316,1.0,8.0,41,0.00,BKN,,0.00,WeatherDisplay:10.37,2014-03-03 20:05:00,
2014-03-03 15:10:00,21.7,2.1,30.12,WNW,295,5.0,9.0,42,0.00,BKN,,0.00,WeatherDisplay:10.37,2014-03-03 20:10:00,
2014-03-03 15:15:00,21.7,2.1,30.12,WNW,295,2.0,6.0,42,0.00,BKN,,0.00,WeatherDisplay:10.37,2014-03-03 20:15:00,
2014-03-03 15:20:00,21.7,2.1,30.13,NW,318,2.0,6.0,42,0.00,OVC,,0.00,WeatherDisplay:10.37,2014-03-03 20:20:00,
2014-03-03 15:25:00,21.7,2.6,30.13,NNW,327,1.0,4.0,43,0.00,OVC,,0.00,WeatherDisplay:10.37,2014-03-03 20:25:00,
2014-03-03 15:30:00,21.8,3.2,30.13,NNW,327,2.0,5.0,44,0.00,OVC,,0.00,WeatherDisplay:10.37,2014-03-03 20:30:00,
2014-03-03 15:35:00,21.8,2.2,30.13,NNW,346,2.0,7.0,42,0.00,OVC,,0.00,WeatherDisplay:10.37,2014-03-03 20:35:00,
2014-03-03 15:40:00,21.8,2.2,30.13,NNW,339,2.0,5.0,42,0.00,OVC,,0.00,WeatherDisplay:10.37,2014-03-03 20:40:00,
2014-03-03 15:45:00,21.8,2.7,30.13,North,354,2.0,7.0,43,0.00,OVC,,0.00,WeatherDisplay:10.37,2014-03-03 20:45:00,
2014-03-03 15:50:00,21.9,2.3,30.13,North,352,2.0,6.0,42,0.00,OVC,,0.00,WeatherDisplay:10.37,2014-03-03 20:50:00,
2014-03-03 15:55:00,22.0,2.3,30.14,NW,304,2.0,5.0,42,0.00,OVC,,0.00,WeatherDisplay:10.37,2014-03-03 20:55:00,
2014-03-03 16:00:00,21.8,1.2,30.14,WNW,288,3.0,8.0,40,0.00,OVC,,0.00,WeatherDisplay:10.37,2014-03-03 21:00:00,
2014-03-03 16:05:00,21.8,1.7,30.14,NW,310,1.0,7.0,41,0.00,BKN,,0.00,WeatherDisplay:10.37,2014-03-03 21:05:00,
2014-03-03 16:10:00,21.7,1.1,30.15,NNW,331,1.0,4.0,40,0.00,BKN,,0.00,WeatherDisplay:10.37,2014-03-03 21:10:00,
2014-03-03 16:15:00,21.6,0.4,30.15,West,278,2.0,6.0,39,0.00,BKN,,0.00,WeatherDisplay:10.37,2014-03-03 21:15:00,
2014-03-03 16:20:00,21.5,0.9,30.15,West,268,1.0,6.0,40,0.00,BKN,,0.00,WeatherDisplay:10.37,2014-03-03 21:20:00,
2014-03-03 16:25:00,21.5,0.9,30.15,WNW,283,3.0,6.0,40,0.00,BKN,,0.00,WeatherDisplay:10.37,2014-03-03 21:25:00,
2014-03-03 16:30:00,21.5,-0.2,30.15,WNW,290,2.0,6.0,38,0.00,BKN,,0.00,WeatherDisplay:10.37,2014-03-03 21:30:00,
2014-03-03 16:35:00,21.5,-0.8,30.15,WNW,295,1.0,5.0,37,0.00,BKN,,0.00,WeatherDisplay:10.37,2014-03-03 21:35:00,
2014-03-03 16:40:00,21.4,-0.3,30.16,NW,309,2.0,8.0,38,0.00,BKN,,0.00,WeatherDisplay:10.37,2014-03-03 21:40:00,
2014-03-03 16:45:00,21.4,-0.3,30.16,NW,326,1.0,5.0,38,0.00,BKN,,0.00,WeatherDisplay:10.37,2014-03-03 21:45:00,
2014-03-03 16:50:00,21.4,-1.5,30.16,NW,309,1.0,5.0,36,0.00,BKN,,0.00,WeatherDisplay:10.37,2014-03-03 21:50:00,
2014-03-03 16:55:00,21.3,-0.4,30.16,NW,305,1.0,7.0,38,0.00,BKN,,0.00,WeatherDisplay:10.37,2014-03-03 21:55:00,
2014-03-03 17:00:00,21.1,-1.2,30.16,WNW,303,1.0,5.0,37,0.00,BKN,,0.00,WeatherDisplay:10.37,2014-03-03 22:00:00,
2014-03-03 17:05:00,20.9,-1.9,30.17,West,281,3.0,6.0,36,0.00,SCT,,0.00,WeatherDisplay:10.37,2014-03-03 22:05:00,
2014-03-03 17:10:00,20.8,-2.0,30.17,WNW,286,1.0,5.0,36,0.00,SCT,,0.00,WeatherDisplay:10.37,2014-03-03 22:10:00,
2014-03-03 17:15:00,20.7,-0.9,30.17,WNW,287,1.0,3.0,38,0.00,SCT,,0.00,WeatherDisplay:10.37,2014-03-03 22:15:00,
2014-03-03 17:20:00,20.5,-1.1,30.17,WNW,296,1.0,2.0,38,0.00,SCT,,0.00,WeatherDisplay:10.37,2014-03-03 22:20:00,
2014-03-03 17:25:00,20.3,-0.2,30.18,WNW,296,0.0,3.0,40,0.00,SCT,,0.00,WeatherDisplay:10.37,2014-03-03 22:25:00,
2014-03-03 17:30:00,20.1,-1.0,30.18,WNW,298,1.0,3.0,39,0.00,SCT,,0.00,WeatherDisplay:10.37,2014-03-03 22:30:00,
2014-03-03 17:35:00,19.9,-1.7,30.18,NW,305,1.0,3.0,38,0.00,SCT,,0.00,WeatherDisplay:10.37,2014-03-03 22:35:00,
2014-03-03 17:40:00,19.8,-1.3,30.18,WNW,293,0.0,1.0,39,0.00,SCT,,0.00,WeatherDisplay:10.37,2014-03-03 22:40:00,
2014-03-03 17:45:00,19.6,-1.4,30.19,WNW,282,1.0,3.0,39,0.00,SCT,,0.00,WeatherDisplay:10.37,2014-03-03 22:45:00,
2014-03-03 17:50:00,19.4,-2.1,30.19,West,281,0.0,1.0,38,0.00,SCT,,0.00,WeatherDisplay:10.37,2014-03-03 22:50:00,
2014-03-03 17:55:00,19.2,-2.3,30.20,West,281,0.0,1.0,38,0.00,SCT,,0.00,WeatherDisplay:10.37,2014-03-03 22:55:00,
2014-03-03 18:00:00,19.1,-1.9,30.19,West,281,0.0,1.0,39,0.00,SCT,,0.00,WeatherDisplay:10.37,2014-03-03 23:00:00,
2014-03-03 18:05:00,18.9,-1.5,30.20,West,281,0.0,1.0,40,0.00,FEW,,0.00,WeatherDisplay:10.37,2014-03-03 23:05:00,
2014-03-03 18:10:00,18.7,-2.2,30.20,West,281,0.0,0.0,39,0.00,FEW,,0.00,WeatherDisplay:10.37,2014-03-03 23:10:00,
2014-03-03 18:15:00,18.4,-2.5,30.20,West,281,0.0,1.0,39,0.00,FEW,,0.00,WeatherDisplay:10.37,2014-03-03 23:15:00,
2014-03-03 18:20:00,18.2,-2.7,30.20,West,281,0.0,1.0,39,0.00,FEW,,0.00,WeatherDisplay:10.37,2014-03-03 23:20:00,
2014-03-03 18:25:00,17.9,-2.4,30.20,West,281,0.0,1.0,40,0.00,FEW,,0.00,WeatherDisplay:10.37,2014-03-03 23:25:00,
2014-03-03 18:30:00,17.7,-2.6,30.21,WNW,282,0.0,2.0,40,0.00,FEW,,0.00,WeatherDisplay:10.37,2014-03-03 23:30:00,
2014-03-03 18:35:00,17.5,-1.7,30.21,WNW,284,0.0,1.0,42,0.00,FEW,,0.00,WeatherDisplay:10.37,2014-03-03 23:35:00,
2014-03-03 18:40:00,17.3,-1.9,30.21,WNW,284,0.0,1.0,42,0.00,FEW,,0.00,WeatherDisplay:10.37,2014-03-03 23:40:00,
2014-03-03 18:45:00,17.1,-2.6,30.22,WNW,284,0.0,1.0,41,0.00,FEW,,0.00,WeatherDisplay:10.37,2014-03-03 23:45:00,
2014-03-03 18:50:00,16.9,-2.8,30.22,WNW,284,0.0,0.0,41,0.00,FEW,,0.00,WeatherDisplay:10.37,2014-03-03 23:50:00,
2014-03-03 18:55:00,16.6,-2.5,30.22,WNW,284,0.0,0.0,42,0.00,FEW,,0.00,WeatherDisplay:10.37,2014-03-03 23:55:00,
2014-03-03 19:00:00,16.4,-2.2,30.23,WNW,284,0.0,0.0,43,0.00,FEW,,0.00,WeatherDisplay:10.37,2014-03-04 00:00:00,
2014-03-03 19:05:00,16.2,-1.5,30.23,WNW,284,1.0,2.0,45,0.00,FEW,,0.00,WeatherDisplay:10.37,2014-03-04 00:05:00,
2014-03-03 19:10:00,16.0,-1.7,30.23,WNW,284,0.0,1.0,45,0.00,FEW,,0.00,WeatherDisplay:10.37,2014-03-04 00:10:00,
2014-03-03 19:15:00,15.9,-1.8,30.23,WNW,284,0.0,1.0,45,0.00,FEW,,0.00,WeatherDisplay:10.37,2014-03-04 00:15:00,
2014-03-03 19:20:00,15.8,-2.3,30.23,WNW,284,0.0,1.0,44,0.00,FEW,,0.00,WeatherDisplay:10.37,2014-03-04 00:20:00,
2014-03-03 19:25:00,15.8,-2.3,30.23,WNW,287,0.0,2.0,44,0.00,FEW,,0.00,WeatherDisplay:10.37,2014-03-04 00:25:00,
2014-03-03 19:30:00,15.7,-2.4,30.23,WNW,290,0.0,1.0,44,0.00,FEW,,0.00,WeatherDisplay:10.37,2014-03-04 00:30:00,
2014-03-03 19:35:00,15.7,-2.9,30.24,WNW,290,0.0,3.0,43,0.00,FEW,,0.00,WeatherDisplay:10.37,2014-03-04 00:35:00,
2014-03-03 19:40:00,15.6,-3.0,30.24,WNW,294,0.0,3.0,43,0.00,FEW,,0.00,WeatherDisplay:10.37,2014-03-04 00:40:00,
2014-03-03 19:45:00,15.6,-2.5,30.24,WNW,301,1.0,3.0,44,0.00,FEW,,0.00,WeatherDisplay:10.37,2014-03-04 00:45:00,
2014-03-03 19:50:00,15.6,-3.0,30.24,NW,305,1.0,2.0,43,0.00,FEW,,0.00,WeatherDisplay:10.37,2014-03-04 00:50:00,
2014-03-03 19:55:00,15.6,-3.5,30.25,NW,307,1.0,3.0,42,0.00,FEW,,0.00,WeatherDisplay:10.37,2014-03-04 00:55:00,
2014-03-03 20:00:00,15.5,-3.1,30.25,WNW,292,0.0,2.0,43,0.00,FEW,,0.00,WeatherDisplay:10.37,2014-03-04 01:00:00,
2014-03-03 20:05:00,15.4,-3.1,30.25,NW,306,0.0,3.0,43,0.00,FEW,,0.00,WeatherDisplay:10.37,2014-03-04 01:05:00,
2014-03-03 20:10:00,15.4,-2.7,30.25,NNW,337,0.0,1.0,44,0.00,FEW,,0.00,WeatherDisplay:10.37,2014-03-04 01:10:00,
2014-03-03 20:15:00,15.3,-3.2,30.25,North,4,0.0,2.0,43,0.00,FEW,,0.00,WeatherDisplay:10.37,2014-03-04 01:15:00,
2014-03-03 20:30:00,14.8,-3.7,30.25,North,8,0.0,0.0,43,0.00,CLR,,0.00,WeatherDisplay:10.37,2014-03-04 01:30:00,
2014-03-03 20:35:00,14.6,-3.4,30.26,North,9,0.0,0.0,44,0.00,CLR,,0.00,WeatherDisplay:10.37,2014-03-04 01:35:00,
2014-03-03 20:40:00,14.4,-3.5,30.25,North,9,0.0,0.0,44,0.00,CLR,,0.00,WeatherDisplay:10.37,2014-03-04 01:40:00,
2014-03-03 20:45:00,14.2,-3.7,30.26,North,9,0.0,1.0,44,0.00,CLR,,0.00,WeatherDisplay:10.37,2014-03-04 01:45:00,
2014-03-03 20:50:00,14.0,-3.0,30.26,North,9,0.0,0.0,46,0.00,CLR,,0.00,WeatherDisplay:10.37,2014-03-04 01:50:00,
2014-03-03 20:55:00,13.7,-2.4,30.26,North,9,0.0,0.0,48,0.00,CLR,,0.00,WeatherDisplay:10.37,2014-03-04 01:55:00,
2014-03-03 21:00:00,13.5,-3.0,30.26,North,9,0.0,0.0,47,0.00,CLR,,0.00,WeatherDisplay:10.37,2014-03-04 02:00:00,
2014-03-03 21:05:00,13.3,-0.7,30.27,North,9,0.0,0.0,53,0.00,CLR,,0.00,WeatherDisplay:10.37,2014-03-04 02:05:00,
2014-03-03 21:10:00,13.0,0.6,30.27,North,9,0.0,0.0,57,0.00,CLR,,0.00,WeatherDisplay:10.37,2014-03-04 02:10:00,
2014-03-03 21:15:00,12.6,-0.2,30.27,North,9,0.0,1.0,56,0.00,CLR,,0.00,WeatherDisplay:10.37,2014-03-04 02:15:00,
2014-03-03 21:20:00,12.3,-0.1,30.27,NNE,13,0.0,0.0,57,0.00,CLR,,0.00,WeatherDisplay:10.37,2014-03-04 02:20:00,
2014-03-03 21:25:00,12.0,0.0,30.27,NNE,15,0.0,0.0,58,0.00,CLR,,0.00,WeatherDisplay:10.37,2014-03-04 02:25:00,
2014-03-03 21:30:00,11.7,-0.6,30.27,NNE,15,0.0,0.0,57,0.00,CLR,,0.00,WeatherDisplay:10.37,2014-03-04 02:30:00,
2014-03-03 21:35:00,11.5,0.6,30.28,NNE,15,0.0,0.0,61,0.00,CLR,,0.00,WeatherDisplay:10.37,2014-03-04 02:35:00,
2014-03-03 21:40:00,11.3,0.8,30.28,NNE,15,0.0,0.0,62,0.00,CLR,,0.00,WeatherDisplay:10.37,2014-03-04 02:40:00,
2014-03-03 21:50:00,10.8,0.3,30.28,NNE,15,0.0,0.0,62,0.00,CLR,,0.00,WeatherDisplay:10.37,2014-03-04 02:50:00,
2014-03-03 21:55:00,10.6,0.4,30.28,NNE,15,0.0,0.0,63,0.00,CLR,,0.00,WeatherDisplay:10.37,2014-03-04 02:55:00,
2014-03-03 22:00:00,10.4,1.3,30.28,NNE,15,0.0,0.0,66,0.00,CLR,,0.00,WeatherDisplay:10.37,2014-03-04 03:00:00,
2014-03-03 22:05:00,10.2,1.1,30.28,NNE,15,0.0,0.0,66,0.00,CLR,,0.00,WeatherDisplay:10.37,2014-03-04 03:05:00,
2014-03-03 22:10:00,10.0,0.6,30.28,NNE,15,0.0,0.0,65,0.00,CLR,,0.00,WeatherDisplay:10.37,2014-03-04 03:10:00,
2014-03-03 22:15:00,9.9,-0.2,30.28,NNE,15,0.0,0.0,63,0.00,CLR,,0.00,WeatherDisplay:10.37,2014-03-04 03:15:00,
2014-03-03 22:20:00,9.7,-0.4,30.28,NNE,15,0.0,0.0,63,0.00,CLR,,0.00,WeatherDisplay:10.37,2014-03-04 03:20:00,
2014-03-03 22:25:00,9.5,-0.6,30.28,NNE,15,0.0,0.0,63,0.00,CLR,,0.00,WeatherDisplay:10.37,2014-03-04 03:25:00,
2014-03-03 22:30:00,9.2,-0.5,30.28,NNE,15,0.0,0.0,64,0.00,CLR,,0.00,WeatherDisplay:10.37,2014-03-04 03:30:00,
2014-03-03 22:35:00,9.0,0.3,30.28,NNE,15,0.0,0.0,67,0.00,CLR,,0.00,WeatherDisplay:10.37,2014-03-04 03:35:00,
2014-03-03 22:40:00,8.8,-0.3,30.28,NNE,15,0.0,0.0,66,0.00,CLR,,0.00,WeatherDisplay:10.37,2014-03-04 03:40:00,
2014-03-03 22:45:00,8.5,-0.5,30.28,NNE,15,0.0,0.0,66,0.00,CLR,,0.00,WeatherDisplay:10.37,2014-03-04 03:45:00,
2014-03-03 22:50:00,8.3,-0.7,30.29,NNE,15,0.0,0.0,66,0.00,CLR,,0.00,WeatherDisplay:10.37,2014-03-04 03:50:00,
2014-03-03 22:55:00,8.1,-0.3,30.29,NNE,15,0.0,0.0,68,0.00,CLR,,0.00,WeatherDisplay:10.37,2014-03-04 03:55:00,
2014-03-03 23:00:00,7.8,-1.2,30.28,NNE,15,0.0,0.0,66,0.00,CLR,,0.00,WeatherDisplay:10.37,2014-03-04 04:00:00,
2014-03-03 23:05:00,7.6,-1.4,30.28,NNE,15,0.0,0.0,66,0.00,CLR,,0.00,WeatherDisplay:10.37,2014-03-04 04:05:00,
2014-03-03 23:10:00,7.3,-1.3,30.28,NNE,15,0.0,0.0,67,0.00,CLR,,0.00,WeatherDisplay:10.37,2014-03-04 04:10:00,
2014-03-03 23:15:00,7.1,-1.9,30.28,NNE,15,0.0,0.0,66,0.00,CLR,,0.00,WeatherDisplay:10.37,2014-03-04 04:15:00,
2014-03-03 23:20:00,6.9,-2.4,30.28,NNE,15,0.0,0.0,65,0.00,CLR,,0.00,WeatherDisplay:10.37,2014-03-04 04:20:00,
2014-03-03 23:25:00,6.7,-2.6,30.29,NNE,15,0.0,0.0,65,0.00,CLR,,0.00,WeatherDisplay:10.37,2014-03-04 04:25:00,
2014-03-03 23:30:00,6.5,-2.5,30.29,NNE,15,0.0,0.0,66,0.00,CLR,,0.00,WeatherDisplay:10.37,2014-03-04 04:30:00,
2014-03-03 23:35:00,6.4,-2.2,30.29,NNE,15,0.0,0.0,67,0.00,CLR,,0.00,WeatherDisplay:10.37,2014-03-04 04:35:00,
2014-03-03 23:40:00,6.2,-2.1,30.29,NNE,15,0.0,0.0,68,0.00,CLR,,0.00,WeatherDisplay:10.37,2014-03-04 04:40:00,
2014-03-03 23:45:00,6.0,-2.0,30.29,NNE,15,0.0,0.0,69,0.00,CLR,,0.00,WeatherDisplay:10.37,2014-03-04 04:45:00,
2014-03-03 23:50:00,5.8,-2.2,30.29,NNE,15,0.0,0.0,69,0.00,CLR,,0.00,WeatherDisplay:10.37,2014-03-04 04:50:00,
2014-03-03 23:55:00,5.6,-2.4,30.29,NNE,15,0.0,0.0,69,0.00,CLR,,0.00,WeatherDisplay:10.37,2014-03-04 04:55:00,